Location: *
(46.1833°N, 22.7667°E)
Time: 04:39:14
(UTC+00:00)

SL-8 R/B - Pass Details

Date: 17 September 2019
Orbit: 657 x 667 km, 48.4° (Epoch: 17 October)

Event Time Altitude Azimuth Distance (km) Brightness Sun altitude
Rises 18:32:08 0° 262° (W) 2,982 8.0 -20.0°
Reaches altitude 10° 18:34:29 10° 264° (W) 2,073 7.1 -20.3°
Maximum altitude 18:39:16 73° 349° (N) 692 3.8 -21.1°
Enters shadow 18:40:55 40° 64° (ENE) 970 4.2 -21.3°
